Address 0xfdbcc17c0288990305fd27ff6aada9ae05696da1

Overview

Balance:
0.078986830001 BNB

Token:
My Name Tag:
Not Available

Txn Hash
Block
From
To
Value [Txn Fee]
0x0c1eab9f78be623451c67ef7565f9d451d6dbe1c925be457fce6b59cc3823957103770742021-07-07 6:40:2818 days 22 hrs ago0xfdbcc17c0288990305fd27ff6aada9ae05696da1OUT 0x686def8eb8fb8e102eca5f2b89891484021189c90 BNB0.0010499
0x0e7a8cb5af4b28e41227e9b1e3d2f4d94210e840d09c68f9b23ff8f46af174a7103770182021-07-07 6:37:4018 days 22 hrs ago0xfdbcc17c0288990305fd27ff6aada9ae05696da1OUT 0x686def8eb8fb8e102eca5f2b89891484021189c90 BNB0.00022938
0xcfcfa05608855fce056a449188f0c29499f4982a05b7663a4a239f4bdac5b067101521752021-06-29 8:06:2626 days 21 hrs ago0xfdbcc17c0288990305fd27ff6aada9ae05696da1OUT0xc0ee8d1e165c20441f66f46787479b33db25e9800.1 BNB0.00021
0xcb12d44483c2ac5fdf6892cd806f1b93bf315de58cd5c0c70a4c1420ae17b3e8101277052021-06-28 11:41:1027 days 17 hrs ago0xfdbcc17c0288990305fd27ff6aada9ae05696da1OUT 0xed24fc36d5ee211ea25a80239fb8c4cfd80f12ee0 BNB0.00040351
0xb173c8e1a2f2bae8ccdf96027a4fa1961a9c4550a448cb15189d71be5670bead101272972021-06-28 11:20:4627 days 17 hrs ago0xfdbcc17c0288990305fd27ff6aada9ae05696da1OUT0x58c77da20bb5775bcb7e54c53b6a0c845005036e0.05 BNB0.00021
0xa72a7c00045ff81ef6139eec497554bf698e03134161251221b71af932ef5d36101272862021-06-28 11:20:1327 days 17 hrs ago0xfdbcc17c0288990305fd27ff6aada9ae05696da1OUT 0xed24fc36d5ee211ea25a80239fb8c4cfd80f12ee0 BNB0.00055351
0x7254646c72e35f5666ca179a09f5341c39c3927cab6e3c2272c82533870414cb101237422021-06-28 8:23:0127 days 20 hrs ago0xfdbcc17c0288990305fd27ff6aada9ae05696da1OUT 0x686def8eb8fb8e102eca5f2b89891484021189c90 BNB0.0011999
0xe0a40ddbd4297b9a971f91183fd5aa1076755815d096a46c35bab4a6a13ba557101236402021-06-28 8:17:5527 days 20 hrs ago0xfdbcc17c0288990305fd27ff6aada9ae05696da1OUT 0xed24fc36d5ee211ea25a80239fb8c4cfd80f12ee0 BNB0.00046843
0x603fbd22acf2b0f53bad01b46bc6a8744c73e783e567019c6d9cbd906ac4fc59101233922021-06-28 8:05:3127 days 21 hrs ago0xfdbcc17c0288990305fd27ff6aada9ae05696da1OUT 0xbc38afa8d75c0c275ac578aaa6c183993cd2137a0 BNB0.0011999
0x93de724cab845673d6d1112cb720ca4ec397d7400340381bac323f256bce6e38101233102021-06-28 8:01:2527 days 21 hrs ago0xfdbcc17c0288990305fd27ff6aada9ae05696da1OUT 0xed24fc36d5ee211ea25a80239fb8c4cfd80f12ee0 BNB0.00046843
0x3c30e85c827ffc01ffbf9eded0183097cc65b009f093fd56248efaa90f515e26100070752021-06-24 7:09:2531 days 22 hrs ago0xfdbcc17c0288990305fd27ff6aada9ae05696da1OUT 0xc589671ed88dd6121820f2acb90848a6e00010570 BNB0.0011839
0x99b21d0e80b0ec8cdfdf3f03ab9f552119b23023819519576750bac5281e6637100070512021-06-24 7:08:1331 days 22 hrs ago0xfdbcc17c0288990305fd27ff6aada9ae05696da1OUT 0xed24fc36d5ee211ea25a80239fb8c4cfd80f12ee0 BNB0.00046807
0x933ccb1ea72f4617d0f1d98b65781ba32734576b9b46ce3f98b190a6dcdda58d100068412021-06-24 6:57:4331 days 22 hrs ago0xfdbcc17c0288990305fd27ff6aada9ae05696da1OUT 0xed24fc36d5ee211ea25a80239fb8c4cfd80f12ee0 BNB0.00046843
0xab4670f942c28761826a19e99769f5214f6cdeb1dc06a28e8c9b5cff17d10532100066002021-06-24 6:45:4031 days 22 hrs ago0xfdbcc17c0288990305fd27ff6aada9ae05696da1OUT 0x0473b9119ba568ddb6665dceb025857ed692fffe0 BNB0.00043596
0x68bc5c72ba6f828970fea6ec7b0fa79e991525881f5e875db23f839bf99fd9b2100053002021-06-24 5:40:4031 days 23 hrs ago0xfdbcc17c0288990305fd27ff6aada9ae05696da1OUT 0xed24fc36d5ee211ea25a80239fb8c4cfd80f12ee0 BNB0.00046795
0x5148ec495fbe620621f61246cd01a920ca967ddea2e00b5a5988fdb917549519100038962021-06-24 4:30:2832 days 46 mins ago0xfdbcc17c0288990305fd27ff6aada9ae05696da1OUT0xc4702cde7a3fb64e67c013c307069a56ebf385ac0.1 BNB0.00021
0x6a41d3505ac146847c266ccdb1d6673c542c22ed417920ba2f48cadba3384eb499220302021-06-21 8:17:1034 days 20 hrs ago0xfdbcc17c0288990305fd27ff6aada9ae05696da1OUT 0xc339efd442738f33131da5a7c2d54a2a6f9611950 BNB0.00035883
0x53466e1834608c4de20313a8d7565b9a45658982b59a5fe453182881b920316a99219382021-06-21 8:12:3434 days 21 hrs ago0xfdbcc17c0288990305fd27ff6aada9ae05696da1OUT Contract Creation0 BNB0.02455784
0x38a439203f3f172db401ba17c04d25e3f74633e99adf5342cb3ba948caecaf4f99219352021-06-21 8:12:2534 days 21 hrs ago0xfdbcc17c0288990305fd27ff6aada9ae05696da1OUT Contract Creation0 BNB0.0191265
0xeebd9c071737f7560ce5bd47be79f85ddfe1d7f6b7218fda8612b6d0923f029899219322021-06-21 8:12:1634 days 21 hrs ago0xfdbcc17c0288990305fd27ff6aada9ae05696da1OUT Contract Creation0 BNB0.02033476
0x5b10b4e18eadf5fd6f816ab6dcec04ad4989519b81f4acaa378b9bfef368752a99218212021-06-21 8:06:4334 days 21 hrs ago0xfdbcc17c0288990305fd27ff6aada9ae05696da1OUT Contract Creation0 BNB0.02455784
0xd86ea6dca47d1160b8609601e096b246de73ff5465b5f2e10545ffccf549a53599218192021-06-21 8:06:3734 days 21 hrs ago0xfdbcc17c0288990305fd27ff6aada9ae05696da1OUT Contract Creation0 BNB0.0191265
0x5985fd619d8c57a210e38c1124ba8bc6cf9454dd1ac95184a316443b47497bb499218162021-06-21 8:06:2834 days 21 hrs ago0xfdbcc17c0288990305fd27ff6aada9ae05696da1OUT Contract Creation0 BNB0.02033476
0xdff9135e0b630d8c17c46ba36a79d8466b6cde272077289e5829840f59cc0bd599210032021-06-21 7:25:4934 days 21 hrs ago0xfdbcc17c0288990305fd27ff6aada9ae05696da1OUT 0x5e43b894dddd658a8375c12170164760e24802190 BNB0.00036603
0x494816994ad9787987a626b3f75bf57f586228abb7eef6564b667ee389c55ebc99209932021-06-21 7:25:1934 days 21 hrs ago0xfdbcc17c0288990305fd27ff6aada9ae05696da1OUT 0x5e43b894dddd658a8375c12170164760e24802190 BNB0.00035895
[ Download CSV Export 
Latest 4 internal transactions
Parent Txn Hash Block From To Value
0xabd063fb1c46d2f62d3148d5c7bb242215c8a73319772a305d3a94c77b419ee693500772021-06-01 11:36:2754 days 17 hrs ago 0x8ba07f2b4c336e97f233f1a519a481bc9a2d23c30xfdbcc17c0288990305fd27ff6aada9ae05696da11 BNB
0x183123ceb10e5c5cbd5434d9ae60a63edee1d2b211040309520bcb500445275493474912021-06-01 9:27:0954 days 19 hrs ago 0xbe8301599fb504add7a38c2735f07d8d0a7433d60xfdbcc17c0288990305fd27ff6aada9ae05696da11 BNB
0xe881a5b02d616ccfa6d45ea38aae88ca696c7bffba21b57f472ed0aad3ac915393420922021-06-01 4:57:1255 days 19 mins ago 0x6ab8a3eaf1528878f23e53b326d530248ba4db3f0xfdbcc17c0288990305fd27ff6aada9ae05696da11 BNB
0x9c19bb07b24ab9d2c593b56d71029e13707bef8a60d54898a87f02be7f8b879f93412262021-06-01 4:13:5455 days 1 hr ago 0x5e4e48255e369b65bb1c633ae1e64da434dcc40a0xfdbcc17c0288990305fd27ff6aada9ae05696da11 BNB
[ Download CSV Export 
Loading

Contract Name:
0 BNB

Compiler Version
0

Optimization Enabled:
0 BNB

Other Settings:
-NA-
Block Transaction Gas Used Reward
Age Block Fee Address BC Fee Address Voting Power Jailed Incoming
Block Uncle Number Difficulty Gas Used Reward
Loading